Perugia, Italy

1:27 PM CEST on April 25, 2017 (GMT +0200)
San Egidio

Weather History for LIRZ - October, 2013

Change the Weather History Date:

Thursday, October 31, 2013

  Actual Average Record
Temperature  
Mean Temperature 64 °F -  
Max Temperature 71 °F 54 °F 75 °F (2004)
Min Temperature 55 °F 42 °F 42 °F (1996)
Degree Days  
Heating Degree Days 1    
Growing Degree Days 14 (Base 50)    
Moisture  
Dew Point 54 °F    
Average Humidity 73    
Maximum Humidity 88    
Minimum Humidity 53    
Precipitation  
Precipitation 0.00 in 0.12 in - ()
Sea Level Pressure  
Sea Level Pressure 30.15 in    
Wind  
Wind Speed 10 mph ()    
Max Wind Speed 14 mph    
Max Gust Speed -    
Visibility 6.2 miles    
Events      
Averages and records for this station are not official NWS values.
T = Trace of Precipitation, MM = Missing Value Source: Averaged Metar Reports

Daily Weather History Graph

Daily Weather History Graph

Search for Another Location

Airport or City:

Trip Planner

Search our weather history database for the weather conditions in past years. The results will help you decide how hot, cold, wet, or windy it might be!

Date:

Astronomy

Oct. 31, 2013 Rise Set
Actual Time 6:43 AM CET 5:03 PM CET
Civil Twilight 6:13 AM CET 5:32 PM CET
Nautical Twilight 5:40 AM CET 6:06 PM CET
Astronomical Twilight 5:07 AM CET 6:39 PM CET
Moon 3:10 AM CET (10/31) 3:16 PM CET (10/31)
Length of Visible Light 11h 18m
Length of Day
10h 19m
Waning Crescent, 11% of the Moon is Illuminated
Oct 31
Waning Crescent
Nov 3
New
Nov 10
First Quarter
Nov 17
Full
Nov 25
Last Quarter

Hourly Weather History & Observations

Time (CET) Temp. Dew Point Humidity Pressure Visibility Wind Dir Wind Speed Gust Speed Precip Events Conditions
6:06 AM 60.8 °F 55.4 °F 82% 30.12 in 6.2 mi North 9.2 mph - N/A   Scattered Clouds
6:50 AM 59.0 °F 55.4 °F 88% 30.12 in 6.2 mi North 11.5 mph - N/A   Scattered Clouds
7:50 AM 59.0 °F 55.4 °F 88% 30.12 in 6.2 mi North 12.7 mph - N/A   Partly Cloudy
8:50 AM 64.4 °F 57.2 °F 77% 30.15 in 6.2 mi NNE 9.2 mph - N/A   Partly Cloudy
9:50 AM 66.2 °F 55.4 °F 68% 30.15 in - NNE 11.5 mph - N/A   Clear
10:50 AM 68.0 °F 55.4 °F 64% 30.15 in 6.2 mi NNE 11.5 mph - N/A   Partly Cloudy
11:50 AM 71.6 °F 53.6 °F 53% 30.15 in 6.2 mi NNE 11.5 mph - N/A   Partly Cloudy
12:50 PM 71.6 °F 53.6 °F 53% 30.15 in 6.2 mi NNE 11.5 mph - N/A   Partly Cloudy
1:50 PM 69.8 °F 53.6 °F 56% 30.12 in 6.2 mi NE 12.7 mph - N/A   Partly Cloudy
2:50 PM 69.8 °F 55.4 °F 60% 30.12 in 6.2 mi NE 13.8 mph - N/A   Partly Cloudy
3:50 PM 68.0 °F 55.4 °F 64% 30.12 in 6.2 mi NNE 11.5 mph - N/A   Partly Cloudy
4:50 PM 64.4 °F 53.6 °F 68% 30.15 in 6.2 mi North 10.4 mph - N/A   Partly Cloudy
5:50 PM 62.6 °F 53.6 °F 72% 30.15 in 6.2 mi NNE 13.8 mph - N/A   Partly Cloudy
6:50 PM 60.8 °F 53.6 °F 77% 30.18 in 6.2 mi North 10.4 mph - N/A   Partly Cloudy
7:50 PM 59.0 °F 53.6 °F 82% 30.18 in - North 10.4 mph - N/A   Clear
8:50 PM 59.0 °F 53.6 °F 82% 30.18 in 6.2 mi North 9.2 mph - N/A   Partly Cloudy
9:50 PM 57.2 °F 53.6 °F 88% 30.21 in 6.2 mi North 10.4 mph - N/A   Partly Cloudy
10:50 PM 57.2 °F 51.8 °F 82% 30.21 in 6.2 mi North 9.2 mph - N/A   Partly Cloudy
11:50 PM 55.4 °F 51.8 °F 88% 30.21 in - North 9.2 mph - N/A   Clear